Location: Callao
(39.8979°N, 113.7141°W)
Time: 13:59:09
(UTC+00:00)

X-37B - Pass Details

Date: 14 March 2021
Orbit: 380 x 394 km, 45.0° (Epoch: 07 April)

Event Time Altitude Azimuth Distance (km) Brightness Sun altitude
Rises 04:11:04 0° 278° (W) 2,273 5.6 -29.1°
Reaches altitude 10° 04:13:17 10° 289° (WNW) 1,422 4.3 -29.5°
Enters shadow 04:13:48 13° 294° (WNW) 1,234 4.0 -29.6°
